Change the Weather History Date:

Tuesday, April 30, 2013

  Actual Average (KMTJ) Record (KMTJ)
Temperature  
Mean Temperature 65 °F 53 °F  
Max Temperature 82 °F 67 °F 82 °F (2007)
Min Temperature 48 °F 39 °F 26 °F (2014)
Degree Days  
Heating Degree Days 0 12  
Month to date heating degree days 482  
Since 1 July heating degree days 5938  
Cooling Degree Days 0 0  
Month to date cooling degree days 0  
Year to date cooling degree days 0  
Growing Degree Days 15 (Base 50)    
Moisture  
Dew Point 22 °F    
Average Humidity 21    
Maximum Humidity 42    
Minimum Humidity 8    
Precipitation  
Precipitation 0.00 in 0.03 in 0.75 in (1999)
Month to date precipitation 0.97  
Year to date precipitation 3.22  
Sea Level Pressure  
Sea Level Pressure 29.71 in    
Wind  
Wind Speed 9 mph (NW)    
Max Wind Speed 32 mph    
Max Gust Speed 44 mph    
Visibility 10 miles    
Events      
T = Trace of Precipitation, MM = Missing Value Source: NWS Daily Summary

Daily Weather History Graph

Daily Weather History Graph

Search for Another Location

Airport or City:

Trip Planner

Search our weather history database for the weather conditions in past years. The results will help you decide how hot, cold, wet, or windy it might be!

Date:

Astronomy

Apr. 30, 2013 Rise Set
Actual Time 6:15 AM MDT 8:03 PM MDT
Civil Twilight 5:46 AM MDT 8:32 PM MDT
Nautical Twilight 5:12 AM MDT 9:07 PM MDT
Astronomical Twilight 4:35 AM MDT 9:44 PM MDT
Moon 12:28 AM MDT (4/30) 10:48 AM MDT (4/30)
Length of Visible Light 14h 45m
Length of Day
13h 48m
Waning Gibbous, 69% of the Moon is Illuminated
Apr 30
Waning Gibbous
May 2
Last Quarter
May 9
New
May 17
First Quarter
May 24
Full

Hourly Weather History & Observations

Time (MDT) Temp. Dew Point Humidity Pressure Visibility Wind Dir Wind Speed Gust Speed Precip Events Conditions
12:15 AM 58.3 °F 23.4 °F 26% 29.75 in 10.0 mi North 8.1 mph - N/A   Clear
12:35 AM 59.0 °F 21.2 °F 23% 29.75 in 10.0 mi North 9.2 mph - N/A   Clear
12:55 AM 57.7 °F 22.1 °F 25% 29.75 in 10.0 mi North 8.1 mph - N/A   Clear
1:15 AM 57.6 °F 23.2 °F 27% 29.75 in 10.0 mi North 8.1 mph - N/A   Clear
1:35 AM 57.2 °F 24.3 °F 28% 29.75 in 10.0 mi NNE 8.1 mph - N/A   Clear
1:55 AM 55.4 °F 20.5 °F 26% 29.75 in 10.0 mi East 8.1 mph - N/A   Clear
2:15 AM 55.8 °F 22.8 °F 28% 29.75 in 10.0 mi ENE 8.1 mph - N/A   Clear
2:35 AM 55.4 °F 23.0 °F 29% 29.74 in 10.0 mi ENE 6.9 mph - N/A   Clear
2:55 AM 55.4 °F 23.2 °F 29% 29.74 in 10.0 mi ENE 9.2 mph - N/A   Clear
3:15 AM 55.0 °F 23.9 °F 30% 29.73 in 10.0 mi NE 6.9 mph - N/A   Clear
3:35 AM 53.6 °F 23.9 °F 32% 29.74 in 10.0 mi ENE 8.1 mph - N/A   Clear
3:55 AM 53.6 °F 24.1 °F 32% 29.74 in 10.0 mi ENE 5.8 mph - N/A   Clear
4:15 AM 52.0 °F 24.6 °F 35% 29.74 in 10.0 mi NNE 8.1 mph - N/A   Clear
4:35 AM 50.9 °F 24.8 °F 36% 29.74 in 10.0 mi NNE 8.1 mph - N/A   Clear
4:55 AM 51.4 °F 23.0 °F 33% 29.75 in 10.0 mi Calm Calm - N/A   Clear
5:15 AM 49.6 °F 25.7 °F 39% 29.74 in 10.0 mi Calm Calm - N/A   Clear
5:35 AM 49.5 °F 24.8 °F 38% 29.74 in 10.0 mi Calm Calm - N/A   Clear
5:55 AM 50.4 °F 23.7 °F 35% 29.75 in 10.0 mi ENE 5.8 mph - N/A   Clear
6:15 AM 51.1 °F 24.3 °F 35% 29.75 in 10.0 mi ENE 5.8 mph - N/A   Clear
6:35 AM 48.6 °F 26.6 °F 42% 29.75 in 10.0 mi NE 6.9 mph - N/A   Clear
6:55 AM 52.2 °F 25.7 °F 36% 29.77 in 10.0 mi SSE 3.5 mph - N/A   Clear
7:15 AM 53.8 °F 25.5 °F 34% 29.77 in 10.0 mi ENE 4.6 mph - N/A   Clear
7:35 AM 54.5 °F 26.8 °F 34% 29.77 in 10.0 mi ESE 3.5 mph - N/A   Clear
7:55 AM 56.5 °F 26.2 °F 31% 29.77 in 10.0 mi ENE 3.5 mph - N/A   Clear
8:15 AM 58.6 °F 26.1 °F 29% 29.77 in 10.0 mi Calm Calm - N/A   Clear
8:35 AM 59.9 °F 26.6 °F 28% 29.77 in 10.0 mi Calm Calm - N/A   Clear
8:55 AM 61.3 °F 27.0 °F 27% 29.77 in 10.0 mi East 3.5 mph - N/A   Clear
9:15 AM 62.4 °F 27.3 °F 26% 29.77 in 10.0 mi East 5.8 mph - N/A   Clear
9:35 AM 63.0 °F 27.7 °F 26% 29.77 in 10.0 mi East 5.8 mph - N/A   Clear
9:55 AM 62.8 °F 31.3 °F 31% 29.76 in 10.0 mi East 4.6 mph - N/A   Clear
10:15 AM 65.8 °F 30.0 °F 26% 29.75 in 10.0 mi ENE 5.8 mph - N/A   Clear
10:35 AM 70.3 °F 26.4 °F 19% 29.75 in 10.0 mi ENE 4.6 mph - N/A   Clear
10:55 AM 72.5 °F 21.2 °F 15% 29.74 in 10.0 mi NE 5.8 mph - N/A   Clear
11:15 AM 73.6 °F 20.8 °F 14% 29.74 in 10.0 mi NNE 4.6 mph - N/A   Clear
11:35 AM 75.9 °F 20.3 °F 12% 29.73 in 10.0 mi Calm Calm - N/A   Clear
11:55 AM 76.3 °F 21.0 °F 13% 29.72 in 10.0 mi North 5.8 mph - N/A   Clear
12:15 PM 77.2 °F 20.8 °F 12% 29.70 in 10.0 mi Calm Calm - N/A   Clear
12:35 PM 78.6 °F 21.0 °F 12% 29.69 in 10.0 mi West 9.2 mph 18.4 mph N/A   Clear
12:55 PM 79.9 °F 18.9 °F 10% 29.68 in 10.0 mi SW 24.2 mph 31.1 mph N/A   Clear
1:15 PM 80.2 °F 20.7 °F 11% 29.68 in 10.0 mi WSW 16.1 mph 25.3 mph N/A   Clear
1:35 PM 80.1 °F 18.9 °F 10% 29.67 in 10.0 mi West 21.9 mph 32.2 mph N/A   Clear
1:55 PM 79.7 °F 19.6 °F 11% 29.67 in 10.0 mi WSW 13.8 mph 23.0 mph N/A   Clear
2:15 PM 79.2 °F 19.2 °F 11% 29.68 in 10.0 mi West 13.8 mph 31.1 mph N/A   Clear
2:35 PM 78.6 °F 19.4 °F 11% 29.68 in 10.0 mi West 12.7 mph 23.0 mph N/A   Clear
2:55 PM 78.8 °F 19.8 °F 11% 29.67 in 10.0 mi WSW 10.4 mph 16.1 mph N/A   Clear
3:15 PM 81.1 °F 17.2 °F 9% 29.66 in 10.0 mi SW 24.2 mph 33.4 mph N/A   Clear
3:35 PM 81.5 °F 14.7 °F 8% 29.66 in 10.0 mi WSW 16.1 mph 33.4 mph N/A   Clear
3:55 PM 81.7 °F 14.2 °F 8% 29.65 in 10.0 mi SW 25.3 mph 39.1 mph N/A   Clear
4:15 PM 81.5 °F 14.5 °F 8% 29.64 in 10.0 mi WSW 32.2 mph 43.7 mph N/A   Clear
4:35 PM 81.5 °F 16.0 °F 9% 29.64 in 10.0 mi WSW 20.7 mph 38.0 mph N/A   Clear
4:55 PM 82.4 °F 15.3 °F 8% 29.63 in 10.0 mi SW 29.9 mph 36.8 mph N/A   Clear
5:15 PM 82.6 °F 15.1 °F 8% 29.63 in 10.0 mi WSW 25.3 mph 36.8 mph N/A   Clear
5:35 PM 80.8 °F 15.3 °F 9% 29.63 in 10.0 mi WSW 23.0 mph 34.5 mph N/A   Clear
6:15 PM 80.6 °F 14.9 °F 8% 29.63 in 10.0 mi WSW 21.9 mph 33.4 mph N/A   Clear
6:35 PM 79.7 °F 15.3 °F 9% 29.63 in 10.0 mi WSW 23.0 mph 38.0 mph N/A   Clear
7:15 PM 78.8 °F 18.0 °F 10% 29.63 in 10.0 mi West 18.4 mph 29.9 mph N/A   Clear
7:35 PM 78.3 °F 18.5 °F 11% 29.63 in 10.0 mi West 13.8 mph - N/A   Clear
7:55 PM 77.0 °F 19.2 °F 11% 29.63 in 10.0 mi West 15.0 mph 20.7 mph N/A   Clear
8:15 PM 75.6 °F 19.4 °F 12% 29.63 in 10.0 mi West 13.8 mph 19.6 mph N/A   Clear
8:35 PM 74.3 °F 19.8 °F 13% 29.63 in 10.0 mi West 10.4 mph - N/A   Clear
8:55 PM 73.8 °F 21.6 °F 14% 29.64 in 10.0 mi WNW 12.7 mph 16.1 mph N/A   Clear
9:15 PM 73.6 °F 21.9 °F 14% 29.65 in 10.0 mi WNW 8.1 mph - N/A   Clear
9:35 PM 70.9 °F 23.9 °F 17% 29.65 in 10.0 mi West 15.0 mph 18.4 mph N/A   Clear
9:55 PM 69.8 °F 25.5 °F 19% 29.66 in 10.0 mi West 18.4 mph 25.3 mph N/A   Clear
10:15 PM 69.6 °F 25.2 °F 19% 29.67 in 10.0 mi West 16.1 mph 25.3 mph N/A   Clear
10:35 PM 68.4 °F 25.3 °F 20% 29.67 in 10.0 mi West 6.9 mph - N/A   Clear
10:55 PM 68.7 °F 25.3 °F 20% 29.68 in 10.0 mi West 15.0 mph 19.6 mph N/A   Clear
11:15 PM 67.1 °F 28.8 °F 24% 29.70 in 10.0 mi WSW 16.1 mph 28.8 mph N/A   Clear
11:35 PM 64.9 °F 31.1 °F 28% 29.71 in 10.0 mi West 19.6 mph 27.6 mph N/A   Clear
11:55 PM 63.0 °F 32.9 °F 32% 29.72 in 10.0 mi West 27.6 mph 39.1 mph N/A   Clear